sat.trackr.live / text

‹ back to catalog

STARLINK-31428

NORAD 59367 · 2024-060V

PAYLOAD ACTIVE UNKNOWN

§ Identity

Operator
Country
US
Launch date
2024-03-31
Launch site
AFETR
Launch vehicle
Mass (kg)
RCS (m²)

Purposes: comms

External: N2YO · Heavens-Above · Gunter

§ Orbital elements

Epoch: 2026-09-20T15:55:17.719392Z

Period
94.27 min
Inclination
43.0034°
Eccentricity
0.0001382
Mean motion
15.27576941 rev/d
Perigee alt
482.1 km
Apogee alt
484.0 km
Semi-major
6,861.2 km
B*
4.2825e-5
RAAN
238.5673°
Arg perigee
273.6373°
Mean anomaly
86.4320°
Rev number
13,988

§ Raw data

STARLINK-314281 59367U 24060V   26263.66339953  .00000916  00000+0  42825-4 0  99952 59367  43.0034 238.5673 0001382 273.6373  86.4320 15.27576941139884

JSON: /api/v1/satellites/59367 · /tle

For live sub-satellite position, see the globe view (requires WebGL).

§ Visibility from observer

Set your observer location to see the next 7 days of passes ≥ 10°. The values pass through the URL so the page stays shareable.

No JS? Fill the form by hand. The geolocation button needs JavaScript.